PAA1 PGUM-RPLL

Flight info

Callsign PAA1
Flight time N/A
Altitude 36000
Route UNZ G467 ACRON DCT 14N138E DCT RPLL
Aircraft B720/M-SDFRWY/C

Departure

Time 2026-04-24 02:08
Airport Antonio B. Won Pat International Airport (PGUM)

Arrival

Time N/A
Airport Ninoy Aquino International Airport (RPLL)
Time Latitude Longitude Altitude Speed Heading
2026-04-24 01:44 13.49058 144.80339 268 ft 0 kts 332°
2026-04-24 01:59 13.49053 144.80342 268 ft 2 kts 332°
2026-04-24 02:00 13.49040 144.80350 269 ft 2 kts 332°
2026-04-24 02:00 13.49026 144.80356 270 ft 2 kts 332°
2026-04-24 02:00 13.49013 144.80364 271 ft 2 kts 335°
2026-04-24 02:00 13.48998 144.80368 272 ft 2 kts 351°
2026-04-24 02:01 13.48983 144.80368 273 ft 2 kts
2026-04-24 02:01 13.48969 144.80365 274 ft 2 kts 16°
2026-04-24 02:01 13.48955 144.80359 274 ft 2 kts 30°
2026-04-24 02:01 13.48943 144.80351 274 ft 2 kts 43°
2026-04-24 02:02 13.48933 144.80339 274 ft 2 kts 55°
2026-04-24 02:02 13.48928 144.80330 274 ft 0 kts 64°
2026-04-24 02:02 13.48927 144.80327 274 ft 0 kts 66°
2026-04-24 02:04 13.48930 144.80341 274 ft 4 kts 77°
2026-04-24 02:04 13.48949 144.80385 276 ft 10 kts 49°
2026-04-24 02:04 13.49020 144.80460 276 ft 18 kts 59°
2026-04-24 02:04 13.49091 144.80594 281 ft 23 kts 62°
2026-04-24 02:05 13.49179 144.80760 287 ft 27 kts 63°
2026-04-24 02:05 13.49263 144.80920 293 ft 11 kts 62°
2026-04-24 02:05 13.49269 144.80969 296 ft 6 kts 111°
2026-04-24 02:05 13.49231 144.80997 301 ft 8 kts 181°
2026-04-24 02:06 13.49153 144.80966 303 ft 15 kts 203°
2026-04-24 02:06 13.49054 144.80922 305 ft 8 kts 215°
2026-04-24 02:06 13.49035 144.80896 304 ft 0 kts 245°
2026-04-24 02:06 13.49026 144.80876 303 ft 18 kts 245°
2026-04-24 02:07 13.48864 144.80545 291 ft 82 kts 245°
2026-04-24 02:07 13.48542 144.79819 272 ft 139 kts 244°
2026-04-24 02:07 13.48049 144.78749 294 ft 182 kts 242°
2026-04-24 02:07 13.47478 144.77556 676 ft 189 kts 241°
2026-04-24 02:08 13.46888 144.76329 1177 ft 189 kts 242°
2026-04-24 02:08 13.46289 144.75133 1660 ft 193 kts 239°
2026-04-24 02:08 13.45571 144.73921 2060 ft 202 kts 232°
2026-04-24 02:08 13.44727 144.72771 2591 ft 201 kts 228°
2026-04-24 02:09 13.43769 144.71591 2829 ft 221 kts 227°
2026-04-24 02:09 13.42732 144.70340 3151 ft 238 kts 226°
2026-04-24 02:09 13.41571 144.68968 3326 ft 266 kts 227°
2026-04-24 02:09 13.40379 144.67433 3586 ft 278 kts 241°
2026-04-24 02:10 13.39938 144.65482 3984 ft 281 kts 277°
2026-04-24 02:10 13.40540 144.63658 4636 ft 269 kts 308°
2026-04-24 02:10 13.41910 144.62421 5093 ft 260 kts 340°
2026-04-24 02:10 13.43544 144.61647 5656 ft 255 kts 339°
2026-04-24 02:11 13.45162 144.60725 5809 ft 269 kts 331°
2026-04-24 02:11 13.46794 144.59712 5933 ft 285 kts 333°
2026-04-24 02:11 13.48664 144.58873 6153 ft 290 kts 349°
2026-04-24 02:11 13.50571 144.58125 6487 ft 300 kts 325°
2026-04-24 02:12 13.51893 144.56438 6852 ft 310 kts 293°
2026-04-24 02:12 13.52272 144.54233 7251 ft 315 kts 270°
2026-04-24 02:12 13.51721 144.52089 7671 ft 316 kts 239°
2026-04-24 02:12 13.50621 144.50122 8120 ft 315 kts 251°
2026-04-24 02:13 13.50378 144.47923 8552 ft 313 kts 275°
2026-04-24 02:13 13.50471 144.45699 8996 ft 312 kts 275°
2026-04-24 02:13 13.50488 144.43455 9424 ft 312 kts 266°
2026-04-24 02:13 13.50403 144.41254 9840 ft 311 kts 270°
2026-04-24 02:14 13.50382 144.39035 10260 ft 311 kts 271°
2026-04-24 02:14 13.50408 144.36804 10612 ft 314 kts 272°
2026-04-24 02:14 13.50472 144.34535 10859 ft 320 kts 273°
2026-04-24 02:14 13.50562 144.32216 11047 ft 328 kts 274°
2026-04-24 02:15 13.50687 144.29811 11181 ft 338 kts 274°
2026-04-24 02:15 13.50839 144.27376 11348 ft 346 kts 275°
2026-04-24 02:15 13.51015 144.24901 11546 ft 353 kts 275°
2026-04-24 02:15 13.51214 144.22359 11789 ft 358 kts 276°
2026-04-24 02:16 13.51429 144.19797 12165 ft 359 kts 276°
2026-04-24 02:16 13.51653 144.17270 12544 ft 359 kts 276°
2026-04-24 02:16 13.51889 144.14708 12927 ft 360 kts 276°
2026-04-24 02:16 13.52134 144.12144 13318 ft 365 kts 277°
2026-04-24 02:17 13.52387 144.09543 13721 ft 369 kts 277°
2026-04-24 02:17 13.52648 144.06912 14134 ft 372 kts 277°
2026-04-24 02:17 13.52916 144.04262 14554 ft 375 kts 277°
2026-04-24 02:17 13.53188 144.01585 14978 ft 377 kts 277°
2026-04-24 02:18 13.53463 143.98904 15402 ft 379 kts 277°
2026-04-24 02:18 13.53740 143.96227 15821 ft 380 kts 277°
2026-04-24 02:18 13.54021 143.93523 16239 ft 381 kts 277°
2026-04-24 02:18 13.54299 143.90846 16650 ft 382 kts 277°
2026-04-24 02:19 13.54582 143.88138 17059 ft 383 kts 277°
2026-04-24 02:19 13.54865 143.85434 17466 ft 383 kts 277°
2026-04-24 02:19 13.55150 143.82713 17875 ft 383 kts 277°
2026-04-24 02:19 13.55436 143.79979 18279 ft 383 kts 277°
2026-04-24 02:20 13.55722 143.77243 18677 ft 383 kts 277°
2026-04-24 02:20 13.56008 143.74519 19068 ft 383 kts 277°